Time,TemperatureF,DewpointF,PressureIn,WindDirection,WindDirectionDegrees,WindSpeedMPH,WindSpeedGustMPH,Humidity,HourlyPrecipIn,Conditions,Clouds,dailyrainin,SoftwareType,DateUTC
2013-03-20 00:09:00,10.6,0.5,29.94,WNW,292,0.0,-999.0,63,-99.99,,,0.00,Acu-Link.com,2013-03-20 06:09:00,
2013-03-20 00:24:00,9.9,0.2,29.93,NNW,337,0.0,-999.0,64,-99.99,,,0.00,Acu-Link.com,2013-03-20 06:24:00,
2013-03-20 00:40:00,9.1,-0.9,29.93,SW,225,0.0,-999.0,63,-99.99,,,0.00,Acu-Link.com,2013-03-20 06:40:00,
2013-03-20 00:55:00,8.8,-2.6,29.92,ENE,67,0.0,-999.0,59,-99.99,,,0.00,Acu-Link.com,2013-03-20 06:55:00,
2013-03-20 01:10:00,8.8,-3.3,29.90,East,90,0.0,-999.0,57,-99.99,,,0.00,Acu-Link.com,2013-03-20 07:10:00,
2013-03-20 01:25:00,10.4,-2.5,29.90,WNW,292,0.0,-999.0,55,-99.99,,,0.00,Acu-Link.com,2013-03-20 07:25:00,
2013-03-20 01:56:00,16.9,-12.0,29.88,West,270,0.0,-999.0,26,-99.99,,,0.00,Acu-Link.com,2013-03-20 07:56:00,
2013-03-20 02:16:00,18.9,-11.9,29.88,SSW,202,0.0,-999.0,24,-99.99,,,0.00,Acu-Link.com,2013-03-20 08:16:00,
2013-03-20 02:36:00,19.6,-12.1,29.88,WNW,292,0.0,-999.0,23,-99.99,,,0.00,Acu-Link.com,2013-03-20 08:36:00,
2013-03-20 02:52:00,20.5,-23.9,29.86,WSW,247,0.0,-999.0,12,-99.99,,,0.00,Acu-Link.com,2013-03-20 08:52:00,
2013-03-20 03:07:00,20.5,-23.9,29.86,North,0,0.0,-999.0,12,-99.99,,,0.00,Acu-Link.com,2013-03-20 09:07:00,
2013-03-20 03:22:00,21.0,-18.1,29.85,West,270,0.0,-999.0,16,-99.99,,,0.00,Acu-Link.com,2013-03-20 09:22:00,
2013-03-20 03:37:00,20.1,-16.5,29.84,West,270,0.0,-999.0,18,-99.99,,,0.00,Acu-Link.com,2013-03-20 09:37:00,
2013-03-20 03:52:00,18.1,-10.2,29.83,West,270,0.0,-999.0,27,-99.99,,,0.00,Acu-Link.com,2013-03-20 09:52:00,
2013-03-20 04:08:00,17.4,-14.9,29.85,West,270,0.0,-999.0,22,-99.99,,,0.00,Acu-Link.com,2013-03-20 10:08:00,
2013-03-20 04:23:00,18.5,-14.8,29.84,SW,225,0.0,-999.0,21,-99.99,,,0.00,Acu-Link.com,2013-03-20 10:23:00,
2013-03-20 04:39:00,17.4,-14.0,29.82,SW,225,0.0,-999.0,23,-99.99,,,0.00,Acu-Link.com,2013-03-20 10:39:00,
2013-03-20 04:54:00,17.6,-9.9,29.83,NW,315,0.0,-999.0,28,-99.99,,,0.00,Acu-Link.com,2013-03-20 10:54:00,
2013-03-20 05:09:00,16.5,-8.2,29.82,West,270,0.0,-999.0,32,-99.99,,,0.00,Acu-Link.com,2013-03-20 11:09:00,
2013-03-20 05:25:00,16.2,-10.4,29.82,West,270,0.0,-999.0,29,-99.99,,,0.00,Acu-Link.com,2013-03-20 11:25:00,
2013-03-20 05:40:00,15.8,-8.1,29.82,WSW,247,0.0,-999.0,33,-99.99,,,0.00,Acu-Link.com,2013-03-20 11:40:00,
2013-03-20 05:55:00,16.7,-11.4,29.81,ESE,112,0.0,-999.0,27,-99.99,,,0.00,Acu-Link.com,2013-03-20 11:55:00,
2013-03-20 06:11:00,16.7,-6.1,29.81,West,270,0.0,-999.0,35,-99.99,,,0.00,Acu-Link.com,2013-03-20 12:11:00,
2013-03-20 06:26:00,16.0,-6.2,29.81,WNW,292,0.0,-999.0,36,-99.99,,,0.00,Acu-Link.com,2013-03-20 12:26:00,
2013-03-20 06:41:00,15.1,-6.4,29.80,WSW,247,0.0,-999.0,37,-99.99,,,0.00,Acu-Link.com,2013-03-20 12:41:00,
2013-03-20 06:57:00,14.9,-8.3,29.80,SSE,157,0.0,-999.0,34,-99.99,,,0.00,Acu-Link.com,2013-03-20 12:57:00,
2013-03-20 07:27:00,18.5,-7.7,29.79,SW,225,0.0,-999.0,30,-99.99,,,0.00,Acu-Link.com,2013-03-20 13:27:00,
2013-03-20 07:43:00,20.3,-9.0,29.78,South,180,0.0,-999.0,26,-99.99,,,0.00,Acu-Link.com,2013-03-20 13:43:00,
2013-03-20 07:58:00,21.4,-7.3,29.78,WSW,247,0.0,-999.0,27,-99.99,,,0.00,Acu-Link.com,2013-03-20 13:58:00,
2013-03-20 08:13:00,23.7,-9.5,29.78,WNW,292,0.0,-999.0,22,-99.99,,,0.00,Acu-Link.com,2013-03-20 14:13:00,
2013-03-20 08:28:00,26.2,-7.4,29.77,South,180,1.1,-999.0,22,-99.99,,,0.00,Acu-Link.com,2013-03-20 14:28:00,
2013-03-20 08:44:00,30.9,-5.4,29.77,East,90,0.0,-999.0,20,-99.99,,,0.00,Acu-Link.com,2013-03-20 14:44:00,
2013-03-20 08:59:00,35.2,-5.2,29.77,West,270,0.0,-999.0,17,-99.99,,,0.00,Acu-Link.com,2013-03-20 14:59:00,
2013-03-20 09:14:00,37.2,-9.0,29.77,South,180,0.0,-999.0,13,-99.99,,,0.00,Acu-Link.com,2013-03-20 15:14:00,
2013-03-20 09:30:00,39.2,-5.9,29.76,SSW,202,0.0,-999.0,14,-99.99,,,0.00,Acu-Link.com,2013-03-20 15:30:00,
2013-03-20 09:45:00,39.6,-5.6,29.75,West,270,0.0,-999.0,14,-99.99,,,0.00,Acu-Link.com,2013-03-20 15:45:00,
2013-03-20 10:00:00,42.3,-5.0,29.74,NW,315,0.0,-999.0,13,-99.99,,,0.00,Acu-Link.com,2013-03-20 16:00:00,
2013-03-20 10:16:00,41.4,-0.1,29.73,WSW,247,2.7,-999.0,17,-99.99,,,0.00,Acu-Link.com,2013-03-20 16:16:00,
2013-03-20 10:46:00,43.3,5.0,29.71,NW,315,5.3,-999.0,20,-99.99,,,0.00,Acu-Link.com,2013-03-20 16:46:00,
2013-03-20 11:01:00,44.4,3.6,29.71,ENE,67,0.0,-999.0,18,-99.99,,,0.00,Acu-Link.com,2013-03-20 17:01:00,
2013-03-20 11:17:00,45.7,5.8,29.71,SW,225,0.0,-999.0,19,-99.99,,,0.00,Acu-Link.com,2013-03-20 17:17:00,
2013-03-20 11:32:00,46.0,9.3,29.69,NNW,337,0.0,-999.0,22,-99.99,,,0.00,Acu-Link.com,2013-03-20 17:32:00,
2013-03-20 11:47:00,48.0,7.7,29.70,ESE,112,6.8,-999.0,19,-99.99,,,0.00,Acu-Link.com,2013-03-20 17:47:00,
2013-03-20 12:03:00,49.3,7.6,29.67,ENE,67,1.1,-999.0,18,-99.99,,,0.00,Acu-Link.com,2013-03-20 18:03:00,
2013-03-20 12:18:00,49.1,6.2,29.66,East,90,0.0,-999.0,17,-99.99,,,0.00,Acu-Link.com,2013-03-20 18:18:00,
2013-03-20 12:33:00,49.6,7.9,29.65,ESE,112,1.7,-999.0,18,-99.99,,,0.00,Acu-Link.com,2013-03-20 18:33:00,
2013-03-20 12:49:00,50.2,8.4,29.65,ESE,112,2.7,-999.0,18,-99.99,,,0.00,Acu-Link.com,2013-03-20 18:49:00,
2013-03-20 13:04:00,49.8,9.2,29.64,ESE,112,1.1,-999.0,19,-99.99,,,0.00,Acu-Link.com,2013-03-20 19:04:00,
2013-03-20 13:19:00,49.3,8.8,29.64,ENE,67,0.0,-999.0,19,-99.99,,,0.00,Acu-Link.com,2013-03-20 19:19:00,
2013-03-20 13:34:00,49.5,14.2,29.62,SE,135,0.0,-999.0,24,-99.99,,,0.00,Acu-Link.com,2013-03-20 19:34:00,
2013-03-20 13:50:00,48.0,12.0,29.60,East,90,0.0,-999.0,23,-99.99,,,0.00,Acu-Link.com,2013-03-20 19:50:00,
2013-03-20 14:05:00,48.6,12.5,29.59,NNE,22,0.0,-999.0,23,-99.99,,,0.00,Acu-Link.com,2013-03-20 20:05:00,
2013-03-20 14:20:00,46.2,18.0,29.59,WNW,292,2.7,-999.0,32,-99.99,,,0.00,Acu-Link.com,2013-03-20 20:20:00,
2013-03-20 14:35:00,45.1,17.7,29.57,SE,135,4.2,-999.0,33,-99.99,,,0.00,Acu-Link.com,2013-03-20 20:35:00,
2013-03-20 14:50:00,44.8,16.0,29.56,SW,225,1.7,-999.0,31,-99.99,,,0.00,Acu-Link.com,2013-03-20 20:50:00,
2013-03-20 15:21:00,43.7,15.1,29.57,ESE,112,1.1,-999.0,31,-99.99,,,0.00,Acu-Link.com,2013-03-20 21:21:00,
2013-03-20 15:36:00,42.1,15.1,29.56,WNW,292,5.3,-999.0,33,-99.99,,,0.00,Acu-Link.com,2013-03-20 21:36:00,
2013-03-20 15:52:00,42.8,15.7,29.57,NE,45,1.1,-999.0,33,-99.99,,,0.00,Acu-Link.com,2013-03-20 21:52:00,
2013-03-20 16:07:00,41.9,15.6,29.56,East,90,3.2,-999.0,34,-99.99,,,0.00,Acu-Link.com,2013-03-20 22:07:00,
2013-03-20 16:22:00,41.7,16.7,29.53,ESE,112,8.9,-999.0,36,-99.99,,,0.00,Acu-Link.com,2013-03-20 22:22:00,
2013-03-20 16:37:00,40.5,16.9,29.53,NNE,22,13.0,-999.0,38,-99.99,,,0.00,Acu-Link.com,2013-03-20 22:37:00,
2013-03-20 16:53:00,40.6,17.6,29.52,ESE,112,2.7,-999.0,39,-99.99,,,0.00,Acu-Link.com,2013-03-20 22:53:00,
2013-03-20 17:08:00,39.7,18.5,29.51,SSW,202,0.0,-999.0,42,-99.99,,,0.00,Acu-Link.com,2013-03-20 23:08:00,
2013-03-20 17:23:00,39.2,19.1,29.52,SSW,202,5.3,-999.0,44,-99.99,,,0.00,Acu-Link.com,2013-03-20 23:23:00,
2013-03-20 17:38:00,37.9,21.4,29.52,SSW,202,0.0,-999.0,51,-99.99,,,0.00,Acu-Link.com,2013-03-20 23:38:00,
2013-03-20 17:54:00,37.0,20.6,29.52,ENE,67,0.0,-999.0,51,-99.99,,,0.00,Acu-Link.com,2013-03-20 23:54:00,
2013-03-20 18:09:00,36.0,21.0,29.52,WSW,247,0.0,-999.0,54,-99.99,,,0.00,Acu-Link.com,2013-03-21 00:09:00,
2013-03-20 18:24:00,35.1,21.4,29.50,NNW,337,3.2,-999.0,57,-99.99,,,0.00,Acu-Link.com,2013-03-21 00:24:00,
2013-03-20 18:40:00,34.5,21.7,29.48,SSE,157,2.2,-999.0,59,-99.99,,,0.00,Acu-Link.com,2013-03-21 00:40:00,
2013-03-20 18:55:00,34.2,21.4,29.47,East,90,5.3,-999.0,59,-99.99,,,0.00,Acu-Link.com,2013-03-21 00:55:00,
2013-03-20 19:10:00,34.0,21.6,29.48,NE,45,3.7,-999.0,60,-99.99,,,0.00,Acu-Link.com,2013-03-21 01:10:00,
2013-03-20 19:26:00,33.4,21.8,29.46,WSW,247,6.8,-999.0,62,-99.99,,,0.00,Acu-Link.com,2013-03-21 01:26:00,
2013-03-20 19:56:00,33.8,20.6,29.45,West,270,2.2,-999.0,58,-99.99,,,0.00,Acu-Link.com,2013-03-21 01:56:00,
2013-03-20 20:11:00,34.0,20.8,29.45,NE,45,6.3,-999.0,58,-99.99,,,0.00,Acu-Link.com,2013-03-21 02:11:00,
2013-03-20 20:42:00,33.8,20.6,29.44,WSW,247,3.7,-999.0,58,-99.99,,,0.00,Acu-Link.com,2013-03-21 02:42:00,
2013-03-20 20:57:00,33.6,20.4,29.47,ENE,67,1.1,-999.0,58,-99.99,,,0.00,Acu-Link.com,2013-03-21 02:57:00,
2013-03-20 21:13:00,33.6,20.4,29.46,West,270,9.9,-999.0,58,-99.99,,,0.00,Acu-Link.com,2013-03-21 03:13:00,
2013-03-20 21:28:00,33.8,20.2,29.44,WSW,247,14.0,-999.0,57,-99.99,,,0.00,Acu-Link.com,2013-03-21 03:28:00,
2013-03-20 21:43:00,33.8,20.2,29.43,West,270,17.1,-999.0,57,-99.99,,,0.00,Acu-Link.com,2013-03-21 03:43:00,
2013-03-20 21:58:00,33.8,20.2,29.43,ENE,67,10.9,-999.0,57,-99.99,,,0.00,Acu-Link.com,2013-03-21 03:58:00,
2013-03-20 22:13:00,34.0,20.0,29.43,ESE,112,7.3,-999.0,56,-99.99,,,0.00,Acu-Link.com,2013-03-21 04:13:00,
2013-03-20 22:29:00,34.0,20.0,29.43,WSW,247,7.8,-999.0,56,-99.99,,,0.00,Acu-Link.com,2013-03-21 04:29:00,
2013-03-20 22:44:00,33.8,20.2,29.44,WNW,292,4.7,-999.0,57,-99.99,,,0.00,Acu-Link.com,2013-03-21 04:44:00,
2013-03-20 22:59:00,33.1,20.7,29.45,SSW,202,3.2,-999.0,60,-99.99,,,0.00,Acu-Link.com,2013-03-21 04:59:00,
2013-03-20 23:14:00,33.4,20.2,29.44,NNE,22,5.3,-999.0,58,-99.99,,,0.00,Acu-Link.com,2013-03-21 05:14:00,
2013-03-20 23:29:00,33.1,20.7,29.43,West,270,4.7,-999.0,60,-99.99,,,0.00,Acu-Link.com,2013-03-21 05:29:00,
2013-03-20 23:44:00,33.1,20.7,29.43,SSW,202,1.1,-999.0,60,-99.99,,,0.00,Acu-Link.com,2013-03-21 05:44:00,